[[{"header":{"parameterUnit":"m.s-1","parameterCategory":1,"la1":30.2991,"la2":30.254,"lo1":-89.0895,"lo2":-89.0444,"dx":0.0017,"dy":0.0017,"nx":28,"ny":28,"refTime":"2022-11-16T09:00:00:Z","depth":0,"parameterNumber":2,"parameterNumberName":"U-component_of_WINDS"},"data":[0,0,0,0,0,0,0,0,0,0,0,0,0,0,0,0,0,0,0,0,0,0,0,0,0,0,0,0,0,0,0,0,0,0,0,0,0,0,0,0,0,0,0,0,0,0,0,0,0,0,0,0,0,0,0,0,0,0,-1.0137,-1.0138,0,-1.022,-1.0221,-1.0222,-1.021,-1.0209,-1.0208,-1.0206,-1.0292,-1.0296,-1.0299,0,0,0,0,0,0,0,0,0,0,0,0,0,-0.9972,-0.9975,-1.0137,-1.0138,-1.0139,-1.022,-1.0221,-1.0222,-1.0211,-1.0209,-1.0207,-1.0206,-1.0291,-1.0295,-1.03,0,0,0,0,0,0,0,0,0,0,0,0,0,-1.0048,-0.9976,-1.0137,-1.0143,-1.0145,-1.0219,-1.0221,-1.0222,-1.0211,-1.0209,-1.0207,-1.0205,-1.029,-1.0295,-1.03,-1.0374,0,0,-1.0317,-1.0319,0,0,0,0,0,0,0,0,-1.0044,-1.0054,-1.0141,-1.0143,-1.0145,-1.0203,-1.0194,-1.0273,-1.0211,-1.0186,-1.0206,-1.0204,-1.0264,-1.0272,-1.0292,-1.0378,-1.0382,-1.0317,-1.032,-1.0323,-1.0324,0,0,0,0,0,0,0,-1.0038,-1.005,-1.017,-1.0143,-1.0145,-1.0143,-1.0151,-1.0209,-1.0236,-1.0188,-1.0187,-1.0197,-1.0265,-1.0287,-1.0294,-1.0383,-1.0317,-1.0322,-1.0325,-1.0327,-1.0535,-1.0538,0,0,0,0,0,0,-1.0031,-1.0046,-1.0167,-1.0172,-1.0088,-1.0147,-1.0157,-1.0186,-1.0235,-1.024,-1.0199,-1.0196,-1.0278,-1.0287,-1.0297,-1.0387,-1.0323,-1.0328,-1.0331,-1.0533,-1.0536,-1.0538,0,0,0,0,0,0,-1.0028,-1.0042,-1.0164,-1.0109,-1.0124,-1.0152,-1.0185,-1.0189,-1.0211,-1.0243,-1.0248,-1.0216,-1.0277,-1.0289,-1.0355,-1.039,-1.033,-1.0335,-1.053,-1.0534,-1.0537,-1.0569,0,0,0,0,0,0,-1.0023,-1.0041,-1.0069,-1.011,-1.0127,-1.0221,-1.0187,-1.0192,-1.022,-1.0217,-1.0261,-1.0266,-1.0276,-1.0347,-1.036,-1.0396,-1.0339,-1.0527,-1.0532,-1.0536,-1.0565,-1.0573,-1.058,0,0,0,0,0,-1.0017,-1.0075,-1.0071,-1.0085,-1.0163,-1.0223,-1.0233,-1.0244,-1.0222,-1.0251,-1.0272,-1.0264,-1.0383,-1.0354,-1.0369,-1.0407,-1.0525,-1.0531,-1.0536,-1.0561,-1.0571,-1.0579,0,0,0,0,0,0,-1.0039,-1.0081,-1.0076,-1.0149,-1.0182,-1.0221,-1.0258,-1.0254,-1.0295,-1.0291,-1.0302,-1.0312,-1.0379,-1.0399,-1.0366,-1.0481,-1.0452,-1.046,-1.0466,-1.0476,-1.0483,-1.0478,-1.0344,0,0,0,0,0,-1.0052,-1.0096,-1.013,-1.0191,-1.0208,-1.023,-1.0257,-1.0262,-1.0297,-1.0311,-1.0337,-1.0372,-1.0418,-1.0447,-1.0491,-1.0567,-1.0576,-1.06,-1.0608,-1.0614,-1.0621,-1.0663,-1.0675,-1.0555,-1.0555,-1.0555,0,0,-1.008,-1.0108,-1.0136,-1.0197,-1.0223,-1.027,-1.0242,-1.0293,-1.0327,-1.0319,-1.0384,-1.0403,-1.0443,-1.0515,-1.0547,-1.0534,-1.0656,-1.062,-1.0625,-1.0629,-1.067,-1.0681,-1.0691,-1.0559,-1.0558,-1.0558,0,0,-1.0154,-1.018,-1.0234,-1.0261,-1.0301,-1.0315,-1.0327,-1.0367,-1.0379,-1.0444,-1.0439,-1.048,-1.0558,-1.0587,-1.0611,-1.0696,-1.0691,-1.0709,-1.075,-1.0791,-1.08,-1.0808,-1.084,-1.0851,-1.0717,-1.0717,-1.0717,0,-1.0184,-1.0254,-1.0262,-1.0313,-1.034,-1.0334,-1.0389,-1.0414,-1.0467,-1.0486,-1.047,-1.0567,-1.0593,-1.0672,-1.0692,-1.0712,-1.0728,-1.0706,-1.0798,-1.0806,-1.0814,-1.0844,-1.0856,-1.0719,-1.0719,-1.0718,-1.0718,0,-1.0289,-1.0337,-1.0376,-1.0426,-1.0457,-1.051,-1.0527,-1.0558,-1.0559,-1.0575,-1.0641,-1.0672,-1.0722,-1.074,-1.0743,-1.0819,-1.0809,-1.0795,-1.0766,-1.0828,-1.0856,-1.0868,-1.0722,-1.0721,-1.0721,-1.072,0,0,-1.0382,-1.0435,-1.0449,-1.0472,-1.0515,-1.0553,-1.0605,-1.0653,-1.068,-1.0716,-1.0761,-1.0826,-1.0813,-1.0841,-1.0846,-1.0882,-1.0948,-1.0864,-1.0865,-1.0879,-1.1035,-1.1047,-1.106,-1.0944,-1.0946,-1.0948,-1.1032,0,-1.0462,-1.0554,-1.0562,-1.0645,-1.069,-1.0684,-1.073,-1.0762,-1.0777,-1.0818,-1.0835,-1.0882,-1.086,-1.0877,-1.0912,-1.0933,-1.098,-1.0926,-1.0987,-1.0989,-1.0979,-1.1075,-1.1087,-1.1165,-1.1043,-1.1045,-1.1046,0,-1.0568,-1.0607,-1.0694,-1.0731,-1.075,-1.0791,-1.0836,-1.0874,-1.091,-1.0919,-1.095,-1.095,-1.1004,-1.0971,-1.1047,-1.101,-1.1035,-1.1049,-1.1052,-1.106,-1.1023,-1.1086,-1.119,-1.1203,-1.1064,-1.1062,-1.1061,0,-1.0629,-1.0702,-1.0764,-1.0784,-1.0828,-1.0857,-1.0877,-1.091,-1.0939,-1.0977,-1.0996,-1.1041,-1.1066,-1.11,-1.1113,-1.1088,-1.1188,-1.1156,-1.1198,-1.1198,-1.1221,-1.122,-1.1332,-1.1234,-1.1234,-1.1234,-1.1233,0,-1.0718,-1.0772,-1.0792,-1.083,-1.0891,-1.0899,-1.0959,-1.0977,-1.1007,-1.1049,-1.1046,-1.1086,-1.1099,-1.1141,-1.1151,-1.1212,-1.1223,-1.1233,-1.1235,-1.1234,-1.1233,-1.1252,-1.1247,-1.1237,-1.1236,-1.1236,-1.1235,0,-1.0797,-1.0812,-1.0879,-1.0915,-1.0926,-1.0969,-1.1,-1.1037,-1.1051,-1.1104,-1.1117,-1.114,-1.1189,-1.1204,-1.1264,-1.1271,-1.1343,-1.1339,-1.1331,-1.1332,-1.1373,-1.1369,-1.1503,-1.1522,-1.141,-1.1411,-1.1412,0,-1.0854,-1.0896,-1.0936,-1.0963,-1.0984,-1.1029,-1.1057,-1.1067,-1.1097,-1.1141,-1.1173,-1.1221,-1.126,-1.1339,-1.1361,-1.1407,-1.1405,-1.1449,-1.1412,-1.141,-1.1408,-1.1406,-1.1411,-1.1457,-1.1458,-1.1459,-1.146,0,-1.0954,-1.096,-1.1001,-1.1045,-1.1079,-1.1114,-1.1148,-1.117,-1.1185,-1.1219,-1.1269,-1.1299,-1.136,-1.1408,-1.1454,-1.1475,-1.147,-1.147,-1.1483,-1.1483,-1.1477,-1.1482,-1.1351,-1.1468,-1.1467,-1.1467,-1.1466,-1.1466,-1.1025,-1.1062,-1.1096,-1.1142,-1.1168,-1.1199,-1.1236,-1.1255,-1.1296,-1.1346,-1.1349,-1.1403,-1.1437,-1.1498,-1.1521,-1.1564,-1.1551,-1.1569,-1.1574,-1.1579,-1.1583,-1.1469,-1.1572,-1.1572,-1.1572,-1.1571,-1.1571,0,-1.1127,-1.1148,-1.119,-1.1237,-1.1273,-1.1264,-1.1301,-1.1332,-1.138,-1.1412,-1.145,-1.1507,-1.1554,-1.1579,-1.1626,-1.1655,-1.1654,-1.1667,-1.1666,-1.1671,-1.159,-1.1576,-1.1667,-1.1667,-1.1667,-1.1667,-1.1667,-1.1667,-1.1184,-1.1246,-1.1255,-1.1329,-1.135,-1.1403,-1.1425,-1.1454,-1.1479,-1.1544,-1.1582,-1.1598,-1.1627,-1.1676,-1.1718,-1.1724,-1.1742,-1.1757,-1.1762,-1.1687,-1.1677,-1.1668,-1.1654,-1.176,-1.176,-1.184,-1.184,-1.1841]},{"header":{"parameterUnit":"m.s-1","parameterCategory":1,"la1":30.2991,"la2":30.254,"lo1":-89.0895,"lo2":-89.0444,"dx":0.0017,"dy":0.0017,"nx":28,"ny":28,"refTime":"2022-11-16T09:00:00:Z","depth":0,"parameterNumber":3,"parameterNumberName":"V-component_of_WINDS"},"data":[0,0,0,0,0,0,0,0,0,0,0,0,0,0,0,0,0,0,0,0,0,0,0,0,0,0,0,0,0,0,0,0,0,0,0,0,0,0,0,0,0,0,0,0,0,0,0,0,0,0,0,0,0,0,0,0,0,0,-7.3216,-7.3217,0,-7.3317,-7.3319,-7.332,-7.3253,-7.325,-7.3247,-7.3244,-7.3342,-7.3347,-7.3353,0,0,0,0,0,0,0,0,0,0,0,0,0,-7.2959,-7.2964,-7.3216,-7.3217,-7.3218,-7.3317,-7.3319,-7.332,-7.3254,-7.325,-7.3246,-7.3243,-7.334,-7.3347,-7.3353,0,0,0,0,0,0,0,0,0,0,0,0,0,-7.3066,-7.2966,-7.3216,-7.3197,-7.3197,-7.3317,-7.3319,-7.332,-7.3254,-7.325,-7.3245,-7.3241,-7.3338,-7.3346,-7.3354,-7.3496,0,0,-7.3379,-7.3383,0,0,0,0,0,0,0,0,-7.306,-7.3076,-7.3199,-7.3199,-7.3198,-7.3268,-7.3264,-7.3379,-7.3255,-7.3232,-7.3244,-7.3239,-7.3321,-7.333,-7.3359,-7.3501,-7.3505,-7.338,-7.3385,-7.3388,-7.3391,0,0,0,0,0,0,0,-7.3053,-7.3071,-7.3256,-7.32,-7.32,-7.3182,-7.3192,-7.3285,-7.3301,-7.3234,-7.3229,-7.3243,-7.332,-7.3351,-7.3361,-7.3507,-7.338,-7.3387,-7.3392,-7.3395,-7.3771,-7.3775,0,0,0,0,0,0,-7.3048,-7.3065,-7.3252,-7.3259,-7.3117,-7.3191,-7.3202,-7.325,-7.33,-7.3303,-7.3246,-7.3239,-7.334,-7.3351,-7.3364,-7.3534,-7.3388,-7.3396,-7.3401,-7.3766,-7.3772,-7.3777,0,0,0,0,0,0,-7.3043,-7.3065,-7.3248,-7.3161,-7.3183,-7.32,-7.3254,-7.3255,-7.3286,-7.3309,-7.3311,-7.3276,-7.3336,-7.3352,-7.3465,-7.3537,-7.34,-7.3407,-7.376,-7.3767,-7.3774,-7.3876,0,0,0,0,0,0,-7.3035,-7.3064,-7.3119,-7.3163,-7.3188,-7.3349,-7.3259,-7.326,-7.3301,-7.3293,-7.3338,-7.3341,-7.3334,-7.3453,-7.3473,-7.3546,-7.3414,-7.3753,-7.3763,-7.3772,-7.3866,-7.3886,-7.3903,0,0,0,0,0,-7.3027,-7.3142,-7.3122,-7.3145,-7.3258,-7.3354,-7.3368,-7.336,-7.3307,-7.3362,-7.3377,-7.3339,-7.3526,-7.3465,-7.3487,-7.3563,-7.3749,-7.376,-7.3771,-7.3858,-7.3882,-7.3903,0,0,0,0,0,0,-7.3104,-7.3148,-7.3126,-7.326,-7.3304,-7.3342,-7.3412,-7.3385,-7.3444,-7.3433,-7.3418,-7.3429,-7.3547,-7.3565,-7.3497,-7.3703,-7.3629,-7.3645,-7.3687,-7.371,-7.3728,-7.3721,-7.342,0,0,0,0,0,-7.3138,-7.3214,-7.3246,-7.3361,-7.3384,-7.3395,-7.3436,-7.3426,-7.347,-7.3488,-7.3511,-7.3553,-7.3622,-7.3667,-7.373,-7.3868,-7.3877,-7.3932,-7.395,-7.3965,-7.398,-7.4054,-7.4079,-7.3814,-7.3814,-7.3814,0,0,-7.3206,-7.3239,-7.3287,-7.3378,-7.341,-7.3488,-7.341,-7.3495,-7.3553,-7.35,-7.3608,-7.3626,-7.3673,-7.3799,-7.3855,-7.3818,-7.4055,-7.398,-7.3992,-7.3998,-7.4069,-7.4094,-7.4116,-7.3822,-7.3821,-7.382,0,0,-7.3371,-7.3403,-7.3503,-7.3538,-7.359,-7.3596,-7.362,-7.3663,-7.3674,-7.3783,-7.3745,-7.3811,-7.3929,-7.3965,-7.3998,-7.4177,-7.4144,-7.4198,-7.4294,-7.4367,-7.4388,-7.4406,-7.4471,-7.4494,-7.4212,-7.4212,-7.4212,0,-7.3449,-7.3566,-7.3557,-7.3646,-7.3687,-7.3645,-7.3745,-7.3779,-7.3848,-7.3876,-7.3834,-7.3982,-7.401,-7.4144,-7.4188,-7.4216,-7.4242,-7.4193,-7.4386,-7.4405,-7.4422,-7.4483,-7.4507,-7.4218,-7.4218,-7.4217,-7.4216,0,-7.366,-7.3742,-7.3816,-7.3887,-7.3935,-7.4029,-7.4033,-7.4083,-7.4069,-7.4079,-7.419,-7.4222,-7.4293,-7.4323,-7.4309,-7.4456,-7.4431,-7.4388,-7.4313,-7.4453,-7.4511,-7.4534,-7.4227,-7.4225,-7.4223,-7.4222,0,0,-7.3877,-7.3942,-7.397,-7.4002,-7.4056,-7.4118,-7.421,-7.4281,-7.4324,-7.4373,-7.4449,-7.455,-7.4511,-7.4549,-7.4538,-7.4602,-7.4743,-7.4551,-7.4552,-7.4586,-7.4906,-7.494,-7.4967,-7.4721,-7.4726,-7.4729,-7.4903,0,-7.4045,-7.4208,-7.4203,-7.4354,-7.4429,-7.4391,-7.447,-7.4511,-7.4523,-7.4587,-7.4599,-7.4672,-7.4614,-7.4637,-7.4698,-7.4713,-7.4807,-7.47,-7.4791,-7.4794,-7.4782,-7.4997,-7.5032,-7.5194,-7.4925,-7.4929,-7.4932,0,-7.4264,-7.4323,-7.4483,-7.4527,-7.4558,-7.4631,-7.4696,-7.4758,-7.4803,-7.4807,-7.485,-7.4829,-7.4921,-7.4843,-7.4968,-7.4895,-7.4932,-7.4945,-7.4951,-7.4959,-7.4872,-7.5012,-7.5246,-7.527,-7.4967,-7.4964,-7.4961,0,-7.4408,-7.4527,-7.4638,-7.4666,-7.472,-7.4772,-7.4796,-7.4837,-7.4881,-7.4936,-7.4964,-7.5029,-7.5065,-7.5115,-7.5112,-7.5055,-7.5239,-7.516,-7.5244,-7.5244,-7.5285,-7.5283,-7.5529,-7.5307,-7.5307,-7.5307,-7.5306,0,-7.4597,-7.4696,-7.4703,-7.4772,-7.4881,-7.4873,-7.4981,-7.5,-7.5037,-7.5107,-7.5076,-7.5142,-7.5134,-7.52,-7.5197,-7.5302,-7.5318,-7.5323,-7.5321,-7.5326,-7.5326,-7.5351,-7.5339,-7.5313,-7.5312,-7.531,-7.5309,0,-7.4776,-7.4785,-7.4904,-7.4946,-7.4959,-7.5038,-7.5073,-7.5137,-7.5146,-7.5235,-7.5256,-7.527,-7.5346,-7.5348,-7.5434,-7.5432,-7.556,-7.5545,-7.5546,-7.5543,-7.5627,-7.562,-7.5899,-7.5935,-7.5689,-7.5692,-7.5694,0,-7.4897,-7.4973,-7.5024,-7.507,-7.5099,-7.5173,-7.5217,-7.5212,-7.5259,-7.5317,-7.5374,-7.5448,-7.5507,-7.563,-7.5646,-7.5712,-7.5699,-7.5792,-7.5709,-7.5712,-7.5702,-7.5698,-7.5705,-7.5809,-7.5812,-7.5814,-7.5816,0,-7.5111,-7.5112,-7.5179,-7.5248,-7.5303,-7.5356,-7.5405,-7.5444,-7.5444,-7.5499,-7.5578,-7.5624,-7.5713,-7.5786,-7.5851,-7.5873,-7.5845,-7.5842,-7.5865,-7.5871,-7.5869,-7.5873,-7.5591,-7.5836,-7.5834,-7.5832,-7.5831,-7.583,-7.5265,-7.5331,-7.5378,-7.5454,-7.5491,-7.5538,-7.5601,-7.5619,-7.5686,-7.576,-7.5751,-7.5839,-7.5882,-7.5966,-7.5994,-7.6061,-7.6029,-7.6062,-7.6071,-7.6079,-7.6089,-7.5858,-7.6073,-7.6072,-7.6072,-7.6071,-7.6071,0,-7.5478,-7.5507,-7.5577,-7.5648,-7.5708,-7.5678,-7.5731,-7.5782,-7.586,-7.5904,-7.5963,-7.6054,-7.6125,-7.6148,-7.6216,-7.6266,-7.6254,-7.6284,-7.628,-7.6286,-7.6114,-7.6087,-7.6292,-7.6292,-7.6292,-7.6292,-7.6292,-7.6292,-7.5597,-7.5707,-7.5714,-7.5842,-7.5869,-7.5957,-7.599,-7.6033,-7.6068,-7.6171,-7.6231,-7.6246,-7.6281,-7.6352,-7.6416,-7.642,-7.6447,-7.6483,-7.6482,-7.6321,-7.6298,-7.6277,-7.6253,-7.6489,-7.6489,-7.6649,-7.6651,-7.6652]}]]